BREEZE-M DEB, 37199

Orbit data source: Space-Track

BREEZE-M DEB, 37199 is space debris in HEO originally from a launch on Fri, 14 Mar 2008 UTC launched from the Tyuratam Missile And Space Complex (TTMTR). Debris objects in space refer to the collection of defunct objects orbiting the Earth. Examples of debris include non-operational satellites, rocket bodies, and fragments generated from explosions, collisions, or faulty payload assembly.

Loading next visibility...
Identifier
37199, 2008-011D
Orbit
HEO
Country
Flag of CISCIS
Related business
Manufacturer
Unknown
Mission
Spacecraft
Bus & Motor
Unknown
Mass
Unknown
Launch date (UTC)
2008-03-14 (18 years ago)
Launch vehicle
Unknown
Launch site
Tyuratam Missile And Space Complex (TTMTR)
Object type
Payload
Rocket body
Debris
Shape & HBR
Unknown shape, 0.3 m
Radar Cross Section
Medium (>0.1 m² and <1 m²)

Expand to show TLE details & history
Last TLE update: 1 week ago

TLE from 1 week ago
0 BREEZE-M DEB
1 37199U 08011D   26164.35063372  .00001000  00000-0  39582-1 0  9996
2 37199  49.3273  31.3742 6377632 202.2966 355.2185  3.06764330175419
Epoch: 2026-06-13T08:24Z
TLE epoch observation values (Epoch: 2026-06-13T08:24:54.753Z)
Latitude
4.26997°
Longitude
179.8405°
Altitude
1,208.977 km
Speed
9.228 km/s
True Right ascension
13h 50m 56s
True Declination
4° 14' 46"
Sunlit
Object was in daylight at epoch
Visualization orbit readout
Latitude
Unknown
Longitude
Unknown
Altitude
Unknown
Speed
Unknown
Apparent Right ascension
Unknown
Apparent Declination
Unknown
Sunlit
N/A
Visualization observer readout
Local Sidereal Time
08:10:08
Azimuth
Unknown
Elevation
Unknown
Doppler factor
Unknown
Orbital elements
Apogee altitude
26,390.948 km
Perigee altitude
869.656 km
Semi-major axis
20,008.439 km
Eccentricity
0.63776
Inclination
49.3273°
RAAN
31.3742°
Arg. of periapsis
202.2966°
True anomaly
332.75547°
Mean anomaly
355.2185°
Eccentric anomaly
346.99612°
Mean motion
0.76687 °/min
Orbital period
469.44 mins
BSTAR
0.039582
Loading maneuver chart data...
Computing Atmospheric mass density...
Loading historical data...
Loading historical data...
Loading historical data...
Loading historical data...
Loading historical data...
Loading historical data...
Loading historical data...

Documentation

Showing up to 5 results
|